This demonstration page uses our WeatherBlox Daily Observations layout. Learn more.

Left ArrowRight Arrow

38.20091, -84.87328

Hourly Observations for August 15, 2021

Temp ( °F °C ) Dew Point ( °F °C ) Humidity (%) Winds ( mph kmh ) Pressure ( in mb ) Visibility ( mi km ) Precip ( " mm )
12:53 am 00:53 Cloudy 73 22.8 63 17.2 71 71 NNE 3 6 30.14 1021 10 16 0.00 0.00
1:53 am 01:53 Cloudy 72 22.2 62 16.7 71 71 VRB 5 7 30.13 1020 10 16 0.00 0.00
2:53 am 02:53 Cloudy 71 21.7 63 17.2 76 76 NNE 6 9 30.12 1020 10 16 0.00 0.00
3:53 am 03:53 Mostly Clear 70 21.1 63 17.2 79 79 NNE 7 11 30.09 1019 10 16 0.00 0.00
4:53 am 04:53 Clear 69 20.6 63 17.2 81 81 N 8 13 30.07 1018 10 16 0.00 0.00
5:53 am 05:53 Partly Cloudy 69 20.6 63 17.2 81 81 NE 7 11 30.09 1019 10 16 0.00 0.00
6:53 am 06:53 Clear 69 20.6 63 17.2 81 81 NE 7 11 30.12 1020 10 16 0.00 0.00
7:53 am 07:53 Mostly Cloudy 69 20.6 64 17.8 84 84 ENE 6 9 30.13 1020 10 16 0.00 0.00
8:11 am 08:11 Cloudy 69 20.6 64 17.8 84 84 NE 7 11 30.14 1021 10 16 0.00 0.00
8:42 am 08:42 Cloudy 69 20.6 64 17.8 84 84 NE 8 13 30.13 1020 10 16 0.00 0.00
8:53 am 08:53 Cloudy 69 20.6 64 17.8 84 84 NE 7 11 30.13 1020 10 16 0.00 0.00
9:53 am 09:53 Cloudy 70 21.1 65 18.3 84 84 ENE 6 9 30.14 1021 10 16 0.00 0.00
10:53 am 10:53 Cloudy 72 22.2 66 18.9 82 82 VRB 6 9 30.14 1021 10 16 0.00 0.00
11:53 am 11:53 Cloudy 73 22.8 67 19.4 81 81 ENE 8 13 30.14 1021 10 16 0.00 0.00
12:53 pm 12:53 Cloudy 74 23.3 67 19.4 79 79 VRB 7 11 30.12 1020 10 16 0.00 0.00
1:35 pm 13:35 Cloudy 75 23.9 67 19.4 76 76 NE 6 9 30.11 1020 10 16 0.00 0.00
1:53 pm 13:53 Cloudy 75 23.9 67 19.4 76 76 NNE 5 7 30.11 1020 10 16 0.00 0.00
2:53 pm 14:53 Cloudy 76 24.4 68 20 77 77 NNE 5 7 30.10 1019 10 16 0.00 0.00
3:53 pm 15:53 Cloudy 77 25 69 20.6 77 77 ENE 7 11 30.08 1019 10 16 0.00 0.00
4:53 pm 16:53 Cloudy 76 24.4 70 21.1 82 82 E 3 6 30.06 1018 8 13 0.00 0.00
5:13 pm 17:13 Cloudy 77 25 69 20.6 77 77 N 5 7 30.04 1017 10 16 0.00 0.00
5:36 pm 17:36 Cloudy 77 25 69 20.6 77 77 VRB 6 9 30.04 1017 10 16 0.00 0.00
5:53 pm 17:53 Cloudy 77 25 68 20 74 74 NNE 6 9 30.06 1018 10 16 0.00 0.00
6:12 pm 18:12 Mostly Cloudy 77 25 69 20.6 77 77 NE 8 13 30.04 1017 10 16 0.00 0.00
6:19 pm 18:19 Mostly Cloudy 77 25 69 20.6 77 77 NE 6 9 30.05 1018 10 16 0.00 0.00
6:53 pm 18:53 Mostly Cloudy 77 25 68 20 74 74 NE 6 9 30.05 1018 10 16 0.00 0.00
7:53 pm 19:53 Cloudy 76 24.4 69 20.6 79 79 NE 7 11 30.04 1017 10 16 0.00 0.00
8:40 pm 20:40 Partly Cloudy 74 23.3 68 20 82 82 ENE 7 11 30.04 1017 10 16 0.00 0.00
8:53 pm 20:53 Mostly Clear 74 23.3 68 20 82 82 NE 5 7 30.05 1018 10 16 0.00 0.00
9:53 pm 21:53 Mostly Clear 73 22.8 69 20.6 87 87 ENE 5 7 30.06 1018 10 16 0.00 0.00
10:53 pm 22:53 Mostly Clear with Light Rain 72 22.2 69 20.6 91 91 ENE 3 6 30.06 1018 10 16 0.00 0.00
11:46 pm 23:46 Cloudy 72 22.2 69 20.6 91 91 NE 5 7 30.05 1018 10 16 0.00 0.00
11:53 pm 23:53 Cloudy 72 22.2 69 20.6 91 91 NE 5 7 30.06 1018 10 16 0.00 0.00

Powered by AerisWeather